Wind_Speed
11 10 8 7 7 8 8 8 8 8 7 6 4 3 3 3 4 5 5 6 7 7 6 6 6 5 5 7 9 9 10 10 10 14 15 9 11 11 11 11 8 6 4 5 4 3 7 9 8 6 4 3 4 6 4 5 7 4 1 2 3 4 5 4 4 4 5 9 8 4 8 15 12 18 24 21 23 25 18 16 19 16 23 30 28 37 37 31
11 10 8 7 7 8 8 8 8 8 8 7 5 3 2 2 3 4 4 5 6 6 6 5 5 5 6 7 9 11 10 10 12 14 10 8 14 13 11 11 8 5 4 4 2 3 7 9 7 2 4 6 5 6 5 4 4 5 2 2 4 5 4 3 4 8 7 10 10 3 2 13 16 15 22 16 13 23 18 16 27 28 26 29 33 36 33 32
11 10 8 6 6 7 7 8 9 9 8 8 6 4 3 1 1 2 3 5 6 6 5 4 4 4 6 8 10 11 10 10 12 9 3 6 11 10 10 11 8 4 4 4 4 5 7 8 5 5 8 8 9 8 7 4 4 5 5 2 5 3 2 3 6 12 10 10 9 2 5 12 14 15 20 15 13 19 15 16 24 28 31 35 36 34 32 31
10 9 7 5 6 7 8 9 9 9 8 8 7 5 3 1 1 1 2 4 5 5 4 4 3 4 6 8 9 9 9 9 7 2 2 4 5 5 7 7 6 5 6 6 6 7 8 8 5 7 8 9 12 9 6 8 6 3 5 5 5 3 3 8 12 16 11 13 12 7 7 9 10 16 23 19 12 8 15 29 31 34 39 40 39 36 34 31
9 9 7 6 6 7 8 8 8 9 9 8 7 5 3 1 1 2 3 4 5 5 4 3 3 5 6 7 7 7 6 4 1 2 3 3 3 3 3 4 5 7 9 9 9 9 9 8 6 8 6 7 8 5 6 13 11 3 6 8 10 8 5 13 17 16 9 11 15 12 7 3 7 13 21 19 9 8 20 35 40 42 44 42 42 39 34 32
9 8 7 6 6 7 8 8 9 9 9 8 7 5 3 1 1 2 3 4 5 4 3 3 4 5 5 6 6 6 3 1 1 1 2 3 2 3 3 4 6 9 11 10 10 10 10 7 6 6 4 4 4 6 9 13 12 5 8 11 13 14 8 9 10 10 7 7 9 8 6 2 9 9 11 14 11 18 29 35 39 41 42 44 43 39 34 32
9 8 7 6 6 7 8 9 9 9 9 8 7 6 4 1 0 2 3 3 4 3 3 3 3 3 3 5 5 5 7 6 3 2 0 2 2 2 3 4 6 9 10 9 12 12 10 9 7 6 3 4 5 7 12 12 11 7 8 11 15 18 15 14 9 7 5 8 6 5 7 5 8 5 5 8 10 22 30 33 37 38 41 43 40 35 32 31
9 9 8 8 8 8 9 9 9 9 9 8 7 6 5 3 1 1 2 3 3 2 3 2 2 2 1 3 4 5 9 7 3 3 3 4 3 2 4 6 7 8 10 13 15 11 8 8 8 7 2 5 6 7 10 9 7 8 9 13 14 16 17 18 11 6 3 6 6 5 5 6 8 9 5 7 15 25 31 32 33 36 39 39 36 33 31 31
10 9 9 9 9 10 10 10 10 10 9 8 7 6 5 4 2 1 2 2 2 2 2 2 1 2 1 3 4 5 6 3 2 3 3 3 1 4 6 6 8 9 12 15 13 10 6 5 6 7 4 9 11 8 8 5 5 8 14 16 11 8 11 13 10 7 3 2 5 5 3 5 9 13 4 7 23 30 35 37 35 38 38 35 34 32 30 30
10 10 10 10 10 10 10 10 10 10 9 8 7 6 5 4 3 2 2 1 2 2 2 2 2 2 3 4 2 2 2 4 5 6 1 3 4 6 7 7 9 10 12 13 11 9 7 6 9 11 11 12 9 7 7 4 6 12 18 20 10 7 12 13 9 8 7 3 3 3 2 6 4 9 1 7 27 35 37 39 38 38 37 35 34 32 30 30
9 9 9 10 10 11 11 11 11 10 9 8 7 6 5 4 3 3 2 1 2 2 2 3 2 3 4 5 4 3 3 5 5 8 3 5 8 9 9 8 7 6 5 7 8 8 10 13 14 14 11 7 6 8 8 4 10 19 14 12 6 3 6 9 9 9 7 2 2 4 1 5 5 5 10 16 27 37 39 37 37 37 35 36 35 33 32 33
8 8 9 10 11 12 12 12 11 10 10 9 8 6 5 4 2 2 2 2 2 2 2 3 3 4 5 8 9 4 3 3 3 6 3 5 8 7 5 3 4 5 7 9 9 9 12 14 13 12 8 5 5 6 8 12 17 18 7 3 2 5 2 4 5 8 6 2 4 5 3 5 5 2 19 28 30 37 40 36 35 35 35 37 36 35 33 33
6 7 8 9 10 12 13 13 12 10 11 10 9 8 6 4 1 1 1 1 2 2 2 2 3 4 6 9 6 0 2 3 4 2 1 1 5 4 2 3 6 8 11 13 12 11 11 13 13 14 12 7 4 4 11 18 17 12 4 1 2 7 4 5 3 6 6 4 9 7 1 5 7 7 14 27 30 30 34 35 32 33 35 36 37 35 34 33
5 6 7 8 9 10 12 13 11 10 10 11 10 10 8 5 2 1 1 1 1 1 1 1 3 5 7 8 3 1 5 7 8 10 6 2 3 3 1 1 3 6 9 12 13 11 11 13 14 14 12 7 6 10 11 11 8 4 3 3 2 3 5 6 2 6 3 5 13 11 2 7 7 11 10 18 29 28 28 31 31 33 35 36 37 36 36 35
4 5 6 7 8 8 10 12 11 10 10 10 10 9 9 7 4 1 1 1 0 0 0 2 4 6 9 9 4 4 6 9 11 12 9 6 5 5 3 3 3 3 6 9 10 9 10 12 12 10 9 8 8 8 6 4 5 3 1 4 3 1 5 7 2 8 6 4 12 12 2 7 6 9 11 9 25 31 28 29 31 34 35 35 36 36 37 36
4 4 5 6 7 7 8 10 10 10 9 10 10 9 7 7 5 2 2 1 0 0 0 1 3 5 7 7 4 6 8 10 10 9 10 10 10 9 6 6 8 7 7 7 7 8 10 10 10 9 8 7 4 3 5 4 5 4 1 2 3 2 4 6 5 9 11 3 6 9 3 3 5 7 9 9 19 31 28 26 29 33 34 34 35 36 36 37
4 3 3 5 6 6 7 8 9 9 9 9 11 10 7 5 4 3 3 2 1 1 1 3 4 6 7 6 4 6 9 8 7 9 12 11 12 11 10 12 13 12 12 11 10 11 12 9 5 6 4 2 2 4 4 4 4 4 2 1 3 3 2 3 6 8 9 7 6 9 5 5 5 6 7 11 20 30 28 28 29 30 33 33 34 35 37 38
4 3 3 4 4 6 6 6 7 8 8 9 11 10 7 5 5 4 4 3 3 1 2 5 4 4 5 6 6 5 6 7 6 8 12 12 11 10 11 14 13 13 14 12 12 12 10 6 1 1 3 3 3 5 2 3 2 2 1 1 3 2 1 3 6 5 8 10 8 9 7 9 7 6 4 6 16 24 23 28 30 29 33 33 33 36 38 39
4 3 3 3 4 5 5 5 5 5 6 8 12 10 7 7 4 2 4 4 3 2 2 5 6 1 5 11 13 8 5 6 6 6 9 10 11 11 10 11 12 11 7 4 6 6 5 2 2 1 3 3 2 4 6 6 6 4 3 4 2 3 3 4 6 5 5 9 7 9 9 9 7 7 5 4 9 16 19 25 30 31 34 34 33 37 38 40
4 4 4 4 4 5 5 5 3 2 4 7 12 9 7 7 3 1 6 10 11 9 10 12 12 13 16 17 13 3 5 8 8 7 7 7 10 11 9 10 9 6 2 3 2 3 3 2 2 4 6 7 7 7 8 5 5 4 1 2 2 1 3 5 4 7 2 5 0 2 4 6 6 6 6 6 3 7 13 19 25 30 32 33 34 36 39 41
5 4 4 4 5 5 5 5 2 1 4 8 11 8 6 6 3 3 9 13 15 14 16 18 18 21 22 18 10 3 4 7 8 9 6 7 10 7 7 8 3 3 4 4 3 2 1 3 6 9 10 9 6 4 6 4 4 4 3 1 3 0 3 6 3 7 4 5 3 4 3 6 6 5 7 6 3 5 10 12 21 29 31 32 35 37 39 41
5 4 4 4 4 4 4 3 1 2 6 8 9 7 6 6 3 7 10 11 16 16 16 18 19 21 21 18 12 10 13 7 6 9 7 8 10 7 5 4 3 3 4 1 1 3 1 3 10 12 8 5 2 2 5 4 5 4 2 2 4 2 2 6 5 7 6 5 2 3 4 5 7 6 6 5 5 8 13 14 18 26 31 30 33 36 38 37
4 4 3 2 2 2 1 2 2 4 7 8 8 7 5 4 4 11 11 8 13 17 15 15 17 19 17 15 10 12 17 9 6 10 9 10 12 11 7 4 3 3 3 0 3 1 2 6 12 10 6 5 3 1 5 4 3 3 3 3 3 3 1 2 5 6 5 2 2 2 4 5 6 6 4 7 10 9 12 16 17 19 29 34 35 38 39 36
4 4 2 1 1 0 0 1 2 5 8 8 8 6 6 5 7 13 10 5 7 11 11 13 15 16 16 14 9 11 16 10 7 9 10 14 13 10 8 5 3 2 3 5 6 5 6 10 9 3 6 8 5 1 4 4 1 2 2 4 3 5 2 4 4 5 6 5 1 4 6 5 4 5 6 5 4 5 10 14 18 21 25 32 33 35 39 38
3 3 2 3 3 2 0 1 3 7 8 7 8 7 7 7 10 13 8 1 4 6 6 8 10 11 11 9 6 8 9 9 11 11 10 17 16 7 5 5 4 3 6 6 5 4 8 14 9 2 6 8 7 5 4 5 1 4 3 6 6 6 5 3 1 4 5 5 4 2 2 5 5 3 6 6 4 5 7 9 18 28 24 23 26 29 36 38
3 3 1 3 5 4 2 1 4 7 5 5 7 9 9 9 10 10 4 3 3 4 2 2 6 6 6 8 9 4 1 5 9 11 12 17 16 7 3 3 2 3 5 4 2 2 5 8 6 5 6 7 5 4 4 5 4 2 4 6 6 5 4 2 1 3 2 2 4 2 3 4 6 4 7 6 5 7 7 5 16 27 23 19 26 32 36 37
2 2 1 2 4 5 3 0 4 6 5 5 9 12 14 13 10 8 2 3 3 3 1 3 4 4 4 8 10 5 1 2 4 8 14 16 13 8 5 4 1 3 2 3 2 3 3 3 2 5 4 4 2 2 4 5 7 2 6 6 4 3 3 2 4 5 3 3 4 4 3 3 4 5 7 5 5 8 9 7 11 20 22 22 28 35 37 35
2 2 1 1 3 3 3 3 2 4 5 7 10 13 13 9 7 4 3 3 3 2 1 3 3 3 4 7 11 8 3 2 1 8 15 13 10 7 4 5 4 4 2 4 2 6 3 2 4 6 4 3 3 5 6 6 5 6 7 5 4 4 5 4 5 3 1 2 4 6 1 1 5 5 5 3 4 7 10 10 9 14 23 26 29 33 34 33
2 2 2 1 3 3 3 3 1 4 7 10 12 12 8 5 4 1 4 1 3 1 1 2 2 5 5 6 9 9 7 6 4 11 16 12 10 7 3 6 6 3 3 4 3 6 3 6 7 6 5 4 5 6 6 7 3 6 4 2 1 3 3 3 5 3 3 4 3 7 0 0 5 6 4 2 3 6 8 9 9 15 24 28 30 32 31 30
2 2 2 1 3 2 2 2 4 6 9 13 13 9 6 4 2 3 2 1 2 1 2 3 2 3 4 1 4 6 6 7 8 12 13 9 10 9 5 5 3 1 2 1 2 6 6 7 7 4 5 6 6 6 5 8 6 2 3 1 4 5 4 3 3 4 4 2 6 7 3 3 3 6 4 3 4 5 6 8 9 12 21 28 31 32 32 31
2 2 2 1 1 1 2 4 5 6 8 11 10 7 5 3 3 5 0 3 2 1 1 1 3 0 4 2 3 3 3 4 5 9 8 5 4 4 1 1 1 3 4 4 3 6 5 2 3 3 7 7 4 3 3 2 2 4 3 2 3 4 4 5 4 4 2 4 7 5 3 5 2 5 5 5 6 6 5 8 10 7 15 25 29 32 35 35
3 3 2 2 2 3 5 5 5 6 7 8 8 6 1 3 3 1 2 2 1 2 3 3 4 2 2 4 3 4 4 3 4 7 5 3 3 2 1 3 3 2 3 4 3 5 4 3 3 3 6 7 4 2 4 4 4 6 4 4 4 2 4 4 4 1 1 6 6 3 2 4 4 8 8 8 8 8 6 9 12 9 15 23 29 34 36 37
4 4 4 4 5 7 7 5 5 7 7 8 8 3 4 5 1 3 2 2 1 3 3 4 5 4 4 3 2 4 4 4 6 8 6 4 3 3 4 4 6 4 2 4 1 3 4 5 4 3 3 4 5 3 2 3 2 4 4 3 4 2 2 2 4 2 2 5 6 4 2 2 4 5 7 7 8 10 12 12 13 10 14 22 29 32 33 35
4 5 4 3 5 9 10 6 5 7 9 10 6 3 5 3 3 2 2 2 2 2 3 3 5 6 6 3 3 3 2 4 4 5 4 3 2 3 4 4 5 5 2 2 1 2 1 5 3 1 2 3 4 5 6 5 2 4 5 5 4 4 3 3 3 3 4 4 4 3 2 2 2 4 6 4 7 11 13 15 17 15 9 9 17 21 25 29
3 4 4 4 5 8 10 10 8 9 11 10 5 4 3 1 3 1 1 3 2 3 4 5 5 5 5 4 3 5 5 3 2 3 1 2 3 4 3 4 6 5 3 3 3 2 3 5 6 2 1 2 0 3 2 4 0 3 3 5 2 4 5 3 3 5 4 1 3 2 2 4 4 5 7 7 10 16 22 24 24 22 20 17 12 9 7 16
4 3 2 4 5 7 11 13 11 8 10 7 5 3 2 4 3 1 1 2 1 2 4 6 6 4 4 5 4 8 9 5 4 5 2 2 2 3 2 2 5 4 5 4 3 1 3 4 6 3 2 3 3 6 3 3 3 2 2 3 3 3 6 3 2 1 3 1 4 1 3 5 3 5 6 8 10 12 16 18 20 24 27 27 27 28 20 9
6 5 2 2 6 8 10 14 11 6 7 4 4 1 4 3 1 1 1 1 1 2 4 3 3 1 2 4 3 6 8 5 5 5 3 2 3 3 2 3 2 2 8 6 1 2 4 2 6 3 3 2 5 7 4 1 2 2 1 5 3 2 4 2 1 3 3 2 5 1 3 5 2 3 5 9 10 9 10 11 14 22 26 25 26 31 32 27
6 6 4 2 6 8 10 12 8 4 3 4 1 3 3 1 1 2 1 1 2 3 4 2 2 0 1 2 3 3 5 4 4 4 3 2 2 2 2 3 5 6 3 6 3 1 3 0 6 3 1 5 7 7 4 7 7 5 1 3 0 1 1 0 1 1 1 2 4 4 4 3 2 3 2 7 7 7 9 11 11 14 19 22 25 30 33 32
7 7 3 3 5 6 8 9 6 2 2 2 1 3 2 2 1 3 4 2 2 3 2 2 2 1 2 1 3 3 2 1 3 3 2 2 3 3 5 3 4 10 8 5 4 1 3 2 5 4 1 3 6 4 1 5 7 5 3 3 1 2 3 3 2 3 3 3 2 3 4 2 4 5 3 5 5 6 7 8 8 10 16 22 25 29 32 31
7 5 1 4 6 7 11 11 5 0 2 1 3 3 4 3 2 5 7 4 1 2 1 3 3 1 3 1 2 3 1 1 2 2 2 2 3 4 5 3 1 5 9 9 5 1 3 3 3 5 4 3 3 0 3 1 3 4 5 5 4 2 0 0 1 2 4 3 3 1 3 4 5 4 6 7 6 6 7 6 6 9 17 22 24 27 30 30
9 4 1 4 7 10 14 10 3 1 2 1 2 2 5 6 4 9 11 9 4 1 2 2 2 2 3 1 2 2 2 3 2 1 2 2 3 2 3 4 2 2 4 7 5 1 1 1 2 2 3 1 4 4 2 1 2 2 2 3 3 3 1 1 3 2 2 3 4 4 3 6 5 3 5 7 7 6 7 8 7 9 15 18 22 25 27 30
9 3 1 3 5 12 14 6 2 1 2 2 3 1 6 8 6 9 14 14 9 2 1 2 2 1 1 1 1 1 2 2 2 1 1 2 1 3 3 6 7 4 4 2 2 2 2 3 2 1 3 4 6 7 4 3 2 3 2 2 1 1 2 3 3 3 0 1 2 3 2 6 5 2 6 7 7 8 10 11 9 9 13 16 20 23 25 28
11 7 2 1 6 13 10 3 4 4 1 4 6 4 6 6 5 7 9 10 8 2 3 2 1 1 1 0 1 2 3 1 3 3 2 2 3 2 7 13 11 6 4 2 2 1 1 3 2 2 3 4 6 7 5 5 3 2 1 2 3 3 2 4 5 3 3 3 1 2 2 6 5 1 6 9 9 10 11 12 11 11 12 14 17 21 23 25
13 11 4 2 8 10 5 2 3 3 3 6 6 5 7 5 5 7 5 6 6 1 2 1 0 2 1 1 2 1 1 1 3 4 2 1 3 6 17 20 13 5 1 2 2 2 1 0 2 2 4 5 7 6 6 6 4 2 2 2 3 3 3 1 1 1 1 4 5 5 4 6 5 3 3 6 6 7 8 10 11 11 13 15 17 20 21 22
11 8 6 8 10 7 7 4 1 1 3 6 4 5 6 4 5 8 7 7 7 2 1 1 1 3 1 3 3 1 0 3 1 4 3 3 3 7 17 19 13 6 3 2 5 6 2 1 3 2 3 4 1 1 2 3 3 2 2 2 1 3 4 2 1 2 1 3 3 4 4 6 6 5 5 4 5 6 8 11 12 12 14 18 21 22 20 19
7 3 6 11 10 7 7 7 8 5 2 5 5 5 4 3 5 10 9 6 4 6 3 2 1 3 2 4 3 2 2 1 2 2 2 3 3 5 13 15 13 10 6 6 5 3 2 1 2 5 6 6 5 6 5 3 3 5 7 8 3 2 2 2 2 1 3 1 2 4 5 6 9 5 7 7 7 6 8 10 11 13 16 18 19 18 18 16
4 1 3 6 8 6 5 9 12 8 4 4 2 3 4 4 4 6 6 3 5 10 5 1 4 4 2 4 2 1 4 4 3 2 2 3 2 5 10 9 8 12 11 10 11 5 4 2 3 4 6 7 7 7 6 4 6 8 9 12 7 3 5 3 3 5 3 2 5 7 4 5 8 2 5 4 4 3 5 6 9 13 14 14 13 13 14 15
4 1 3 4 3 2 3 8 12 9 8 6 2 3 4 5 4 3 4 4 7 10 5 4 8 7 5 4 1 0 4 5 4 3 3 4 4 5 8 5 6 12 12 9 9 4 4 2 4 4 4 6 5 6 7 5 6 7 8 11 8 2 5 6 6 5 5 4 7 7 4 6 9 2 4 5 5 4 5 6 7 9 10 11 12 12 14 15
5 2 3 5 4 3 5 10 12 9 7 6 3 2 3 4 5 4 3 3 4 7 7 4 6 9 7 4 3 1 1 2 3 4 2 3 4 3 4 5 5 10 11 7 6 3 3 3 4 2 2 5 4 6 8 7 7 9 10 8 6 5 6 6 6 6 6 7 9 7 6 8 9 5 6 6 6 5 4 5 7 9 9 9 9 11 13 15
7 4 6 9 7 7 8 10 9 6 5 5 3 4 4 2 2 2 3 3 1 4 6 5 3 7 6 5 5 3 1 2 2 2 1 2 4 1 0 2 3 7 8 4 3 4 2 2 3 3 2 5 6 7 8 6 7 9 7 2 2 4 6 5 6 5 4 6 7 6 6 7 6 6 3 1 1 2 6 9 10 10 9 9 10 11 13 15
5 3 6 7 4 5 7 8 6 3 3 4 3 4 5 4 4 3 1 4 7 4 2 4 1 2 4 6 5 2 3 4 5 4 3 3 4 3 3 2 2 5 7 3 3 4 3 3 3 5 2 5 6 7 5 4 7 9 5 2 3 6 6 4 5 4 4 6 5 4 5 5 5 5 3 6 8 8 8 9 10 11 9 10 12 12 13 13
5 3 4 4 2 3 5 5 5 3 2 5 6 5 4 6 9 6 2 3 7 7 4 4 4 2 3 5 5 3 3 2 2 4 5 6 6 6 8 9 7 5 2 2 3 2 1 1 1 2 0 4 5 4 3 6 7 9 6 6 8 8 6 3 4 4 4 4 4 4 5 6 4 3 3 5 6 7 7 8 10 10 10 10 10 10 9 9
Wind_Direction
341 338 333 334 341 342 348 353 355 355 357 355 348 341 304 273 254 244 240 228 217 222 227 233 239 248 257 268 270 267 264 262 256 252 255 229 187 186 178 176 177 173 206 235 235 231 212 198 181 170 195 251 273 273 259 259 259 252 207 177 230 243 227 216 234 277 302 300 305 339 95 110 107 103 108 110 106 113 122 120 124 126 140 151 154 151 148 150
343 343 336 336 340 343 349 348 353 358 359 358 355 350 325 285 257 240 222 214 214 221 228 236 241 253 267 273 275 275 277 280 272 261 255 207 190 190 180 173 169 177 216 243 257 243 222 200 178 197 277 264 251 255 256 260 241 207 156 176 224 222 224 211 264 291 294 287 283 292 90 117 125 126 118 113 102 105 102 105 116 117 125 139 146 148 149 154
343 345 338 335 335 342 349 347 355 358 359 -0 1 2 355 340 258 237 212 205 209 220 227 236 245 261 271 274 281 287 292 293 283 273 254 210 203 199 194 180 167 197 245 264 263 240 224 210 206 294 299 273 246 247 254 261 257 217 194 217 238 234 285 290 296 291 299 313 301 341 110 124 130 135 124 123 124 116 120 127 121 121 131 140 146 152 154 156
345 349 346 342 340 344 350 351 356 357 0 3 4 8 5 33 120 177 196 201 208 218 222 234 247 262 272 279 288 291 301 307 293 263 147 201 189 198 204 179 172 220 253 266 257 231 220 217 234 289 297 270 250 250 250 242 252 215 188 204 231 247 303 275 283 288 311 1 349 16 87 120 124 132 132 129 122 120 147 147 143 142 146 150 153 156 158 158
352 355 356 352 347 347 350 353 357 359 2 4 7 8 8 39 131 156 183 197 206 216 221 233 247 263 273 282 285 286 311 335 340 109 145 180 160 196 209 184 195 226 248 256 245 219 212 217 247 278 273 253 250 250 247 237 237 258 252 238 230 234 259 264 269 278 295 16 8 16 46 98 95 115 138 137 133 173 166 155 153 154 157 160 161 160 161 161
360 2 3 358 352 352 354 357 -0 2 2 3 7 8 15 36 149 167 191 201 208 212 216 230 246 261 271 274 279 288 307 325 250 71 140 196 213 228 225 208 211 231 244 245 228 205 203 216 246 263 242 240 230 214 242 243 231 241 270 259 247 239 238 261 265 266 272 42 26 13 18 41 78 85 137 140 155 172 166 160 158 160 163 164 163 163 164 166
8 11 13 9 4 4 3 5 5 4 3 4 5 7 13 7 179 189 204 202 207 203 208 229 242 249 269 279 287 293 284 282 291 332 217 240 272 246 227 219 220 230 228 211 197 186 202 222 239 255 256 257 235 224 248 254 232 217 252 259 253 244 238 251 252 245 262 68 58 16 27 28 70 89 124 117 155 168 164 160 159 159 160 161 161 163 165 167
17 20 25 25 23 20 16 16 12 7 6 5 4 2 2 353 326 232 218 205 200 180 194 214 226 236 272 289 300 300 288 298 307 306 287 276 295 220 185 193 202 206 193 180 179 180 212 238 256 270 263 244 241 236 248 260 244 221 237 249 247 245 237 236 222 207 256 70 62 22 31 6 62 111 111 96 138 157 160 156 153 152 154 157 159 162 165 167
30 34 38 38 34 28 23 19 13 10 8 6 6 1 357 351 332 287 234 208 182 162 190 205 216 215 193 269 299 308 297 338 11 332 292 265 252 174 170 179 180 174 174 173 180 193 221 258 276 273 254 260 263 258 262 263 245 226 228 239 248 237 204 198 186 170 199 116 77 37 347 334 73 108 95 120 138 148 154 153 152 152 154 158 160 163 165 167
41 46 46 41 36 28 21 15 9 7 6 6 5 1 356 346 331 310 270 227 182 177 186 190 196 189 211 256 292 321 340 64 39 14 353 197 155 159 157 151 156 159 167 174 193 214 243 293 307 297 280 269 270 283 291 254 263 275 242 231 236 207 178 173 170 157 163 163 106 84 288 307 50 104 100 159 143 145 149 150 155 156 158 162 162 166 168 168
47 48 45 38 32 26 19 13 7 5 4 5 1 357 354 344 330 312 284 241 200 189 190 187 189 203 233 261 245 263 43 79 28 11 37 158 143 143 139 135 152 168 191 209 232 256 284 305 313 303 283 270 298 317 305 281 302 300 262 218 225 193 169 170 159 152 156 175 145 125 202 307 353 95 162 169 150 148 149 151 159 161 162 164 165 169 171 171
47 45 41 35 29 25 21 15 10 9 10 9 3 357 350 343 326 301 287 251 214 191 194 185 197 219 257 271 256 268 60 94 346 6 47 145 147 144 147 179 230 263 281 275 283 298 299 306 308 290 279 290 323 336 313 312 314 302 274 179 308 17 45 204 168 156 150 159 179 128 16 316 322 164 161 163 157 152 154 158 164 166 166 167 169 172 172 175
42 40 36 31 28 25 22 17 12 13 15 15 13 9 2 355 345 298 290 267 219 187 194 200 242 262 284 278 267 342 174 229 276 246 96 131 175 183 193 260 290 298 297 293 299 306 299 302 303 294 300 311 311 311 308 312 310 297 303 87 348 10 343 247 199 171 151 164 182 145 10 281 274 247 173 161 165 159 157 164 170 169 169 170 172 175 176 179
33 33 28 26 25 24 23 20 16 14 15 17 17 19 21 19 19 348 307 292 228 196 198 270 308 310 296 276 248 184 219 228 237 220 207 230 242 243 203 218 297 302 297 291 293 296 295 300 304 303 299 296 304 309 314 318 316 313 346 11 32 7 287 269 211 173 174 197 176 144 187 253 263 260 227 171 170 167 163 169 173 171 172 174 175 178 179 181
19 19 17 17 19 21 22 22 22 21 18 17 15 17 24 27 27 15 338 340 206 180 99 334 332 325 299 276 233 206 214 217 228 228 217 224 266 265 225 204 238 269 273 272 284 299 300 297 300 304 295 300 322 327 333 332 331 9 27 327 346 229 266 297 282 181 192 209 166 144 190 254 264 257 250 202 177 175 174 175 175 174 175 176 178 180 181 180
357 358 3 6 8 14 17 18 21 23 21 17 13 9 10 17 22 11 329 332 22 166 179 312 333 333 298 278 255 215 211 221 232 237 227 233 261 259 248 265 266 265 262 268 288 299 296 290 292 292 287 304 347 32 9 359 343 2 84 265 279 256 295 320 310 219 199 165 166 170 177 247 269 241 238 254 203 183 177 179 177 176 177 177 180 181 180 179
341 335 346 354 0 2 4 9 9 10 14 14 11 4 352 347 357 2 333 323 337 259 241 263 298 307 273 263 282 230 213 226 235 229 225 236 254 253 258 269 274 272 265 271 277 276 279 277 270 273 280 318 51 75 26 353 320 324 6 331 260 240 285 297 304 268 194 160 190 195 189 213 241 232 227 261 223 190 175 179 180 176 178 179 181 181 180 180
327 316 321 331 344 346 346 354 354 353 359 9 11 7 358 340 329 337 338 331 322 290 261 248 257 311 271 260 296 278 232 224 220 214 216 228 242 249 259 262 277 282 266 262 264 258 261 268 219 301 349 359 28 85 109 246 219 258 301 356 299 270 238 263 282 272 180 173 187 184 208 229 251 287 262 236 206 184 169 175 179 176 180 182 181 182 181 181
318 309 305 301 316 328 333 343 343 343 351 8 12 12 19 5 337 307 332 325 280 238 268 237 215 253 281 284 296 297 254 208 192 202 213 220 230 244 258 257 272 280 261 250 265 245 220 264 25 17 310 291 248 147 178 211 181 200 223 163 225 288 277 264 267 279 188 172 174 176 205 224 242 290 267 205 182 167 161 171 179 180 183 185 184 183 184 183
317 309 301 292 300 311 326 342 352 358 359 11 11 16 27 13 10 295 319 303 278 271 283 270 254 264 276 292 300 267 175 182 196 225 222 218 228 242 249 246 269 288 247 181 245 274 186 212 272 219 229 232 234 212 189 190 165 170 111 126 219 264 303 281 280 319 330 143 106 184 214 250 253 281 264 242 233 180 175 172 180 187 187 187 187 186 187 188
321 315 307 296 296 306 323 345 39 61 8 13 14 19 15 6 14 325 321 305 294 286 277 273 269 270 274 285 286 218 199 192 215 247 239 226 227 233 236 227 259 318 263 206 202 314 114 201 243 228 223 215 223 207 161 134 108 120 91 13 296 286 304 293 299 328 5 108 346 15 39 312 285 286 287 278 277 236 228 198 184 190 192 192 191 190 191 192
329 321 320 309 303 311 321 344 54 15 0 4 6 13 11 13 356 313 319 303 294 289 276 272 269 267 270 273 266 259 265 244 235 250 225 221 219 211 221 195 183 246 278 274 83 342 7 235 246 237 221 189 187 135 121 106 86 92 87 48 307 286 294 308 320 330 13 85 304 4 42 301 281 267 270 264 251 253 249 231 206 194 193 195 195 193 192 192
339 334 337 334 324 321 327 347 6 8 4 355 349 355 359 2 320 310 310 286 288 291 279 266 261 260 262 271 269 252 251 238 239 247 221 216 211 204 213 182 188 254 319 315 166 221 270 241 242 234 197 157 181 120 83 66 63 91 95 95 282 282 84 316 311 327 3 61 191 46 19 296 292 298 263 221 219 235 246 245 241 216 199 199 199 197 195 191
346 350 8 79 112 180 297 321 347 353 351 359 1 353 344 334 319 317 309 269 285 291 271 257 260 264 264 272 272 234 231 231 247 245 220 215 205 198 214 203 184 245 266 225 185 192 240 252 249 202 170 174 175 180 96 89 334 294 162 153 233 275 208 197 265 324 354 351 79 77 16 319 308 317 295 264 228 232 243 242 250 246 219 205 202 200 198 194
343 359 53 128 161 176 220 318 351 342 341 17 22 -0 352 335 318 320 320 307 290 286 276 261 254 257 255 244 228 220 222 235 251 254 236 216 201 189 223 213 191 235 252 235 197 202 248 260 258 161 183 190 172 202 184 143 180 307 246 198 210 242 243 226 313 20 29 342 310 70 32 301 308 308 271 281 318 292 261 234 239 247 235 212 205 202 200 199
335 356 62 153 183 203 254 357 19 5 12 36 7 342 326 309 310 313 324 53 323 281 302 243 214 222 223 200 201 216 258 256 260 261 242 217 202 195 242 234 194 238 245 228 200 212 259 262 233 176 192 191 174 221 221 145 125 301 248 203 202 220 235 260 101 93 101 254 284 51 142 253 306 301 259 268 301 291 278 244 237 244 238 215 207 203 201 201
329 341 36 157 195 221 240 141 42 27 24 353 333 325 310 296 300 303 325 44 323 280 276 214 190 201 214 203 204 188 79 286 270 228 210 202 200 197 226 258 283 253 235 67 16 269 286 311 158 149 143 129 126 240 226 135 117 234 242 195 212 232 207 203 141 147 199 227 315 4 123 227 286 266 260 276 296 294 286 266 245 243 236 219 210 205 203 203
331 334 5 135 192 202 183 149 66 12 345 323 323 325 317 296 288 296 73 70 267 280 295 222 212 228 215 201 205 198 197 222 137 193 193 192 200 187 204 227 205 244 237 92 306 269 273 284 188 150 125 131 174 220 207 136 128 242 238 191 200 189 171 157 113 136 191 68 321 314 49 240 275 272 284 297 277 287 285 274 257 241 233 220 210 205 205 208
337 343 358 115 138 124 130 153 319 331 314 318 329 330 329 314 299 353 81 74 258 260 153 198 229 233 208 192 210 215 219 226 197 188 188 191 206 204 236 234 193 225 245 140 202 256 250 246 226 149 137 196 216 227 182 144 196 244 207 163 71 90 118 106 102 110 41 49 272 270 351 127 273 284 299 308 273 272 275 273 256 239 234 222 210 204 202 202
355 355 354 149 141 122 134 208 291 312 313 320 328 326 323 322 345 57 59 267 244 218 164 183 244 210 159 152 244 225 213 229 211 186 188 195 202 208 229 242 203 146 324 34 194 248 267 263 248 158 167 198 201 223 184 169 207 208 137 138 19 17 21 34 68 85 57 340 262 248 195 146 279 286 265 241 251 267 279 286 277 245 229 222 214 208 206 204
39 22 8 161 180 254 314 310 306 323 329 327 328 323 319 330 58 88 153 246 240 309 85 209 283 68 137 175 253 253 238 242 197 171 196 215 195 214 219 249 286 47 5 343 310 293 320 304 249 204 195 185 165 231 256 191 164 84 96 114 54 338 1 21 355 39 80 258 264 259 167 134 214 271 256 249 262 275 271 270 283 261 217 218 215 212 214 214
61 57 60 69 40 358 341 333 333 347 349 347 341 330 0 37 33 122 234 289 306 300 359 347 309 334 228 224 220 228 230 234 190 167 189 199 172 217 198 182 184 48 337 282 296 326 328 256 268 279 215 184 139 257 304 352 43 81 85 81 85 327 5 11 314 332 214 250 259 259 127 136 232 255 257 264 272 283 284 274 280 256 210 213 215 215 219 219
69 78 83 80 61 32 10 354 350 358 6 6 351 342 80 71 323 233 259 330 301 277 346 349 314 338 347 309 280 245 224 228 211 187 181 168 172 239 259 213 169 132 239 234 258 345 326 301 315 357 271 207 148 162 262 317 35 130 145 117 125 118 61 293 274 284 258 262 261 241 195 236 283 264 241 239 258 283 296 307 310 281 225 214 215 215 219 221
74 75 62 44 44 29 20 15 359 4 8 1 358 39 66 60 249 258 320 300 283 309 349 343 323 348 1 330 289 311 328 275 235 174 162 142 150 248 275 251 193 157 158 178 210 180 176 303 295 147 277 229 171 183 185 173 157 183 169 133 141 147 148 211 224 216 245 266 280 284 242 203 213 256 258 273 320 341 355 5 2 343 312 247 234 228 221 219
58 64 38 9 9 16 15 7 2 9 357 349 17 68 81 225 252 276 292 267 287 334 341 349 11 14 346 317 312 359 19 317 315 68 123 182 173 205 219 231 215 178 134 156 227 185 158 242 253 238 251 156 316 301 162 127 116 249 145 104 145 180 164 183 195 188 188 254 290 295 246 210 199 269 309 356 8 23 35 35 28 16 17 26 14 346 259 222
352 3 28 10 355 4 2 351 355 6 345 351 55 68 192 210 224 193 259 297 328 353 358 2 18 31 334 323 334 359 10 350 349 22 322 258 224 227 218 238 225 181 151 163 226 191 135 251 271 318 11 97 46 342 316 181 221 248 121 162 226 168 141 164 261 221 100 204 269 256 248 286 333 312 332 27 30 32 42 40 37 37 38 41 39 36 33 24
348 341 306 336 358 358 344 335 337 338 335 29 86 225 224 222 240 137 332 348 103 47 57 41 336 343 345 331 326 346 353 345 356 0 315 305 313 300 304 293 310 161 172 161 192 200 141 267 287 350 7 346 25 5 323 273 106 96 202 229 239 58 84 120 289 345 35 240 273 298 238 272 341 300 331 29 34 29 41 44 39 42 44 40 37 41 41 38
341 340 306 317 353 335 321 319 311 297 348 60 82 251 220 258 343 75 29 311 119 68 77 118 259 286 53 318 290 324 343 339 349 345 322 323 305 317 346 312 353 359 215 153 111 222 119 310 290 335 340 307 6 28 344 348 29 69 213 257 220 72 347 90 161 257 262 236 281 309 278 258 204 223 342 31 37 35 43 47 39 35 40 37 32 36 39 39
332 332 330 13 355 326 330 326 294 268 47 69 238 260 234 243 288 44 35 9 95 82 83 177 207 357 0 261 262 300 353 347 333 336 329 320 298 351 21 355 351 356 358 72 104 257 87 111 272 306 320 304 359 36 11 331 358 30 16 351 31 153 176 176 180 173 175 207 246 304 314 288 228 209 127 79 69 73 67 60 48 31 33 35 31 29 30 30
348 335 29 33 6 358 356 341 306 153 78 177 204 244 279 264 286 13 36 47 97 113 150 211 187 252 279 278 290 292 332 336 321 312 262 298 325 339 1 1 305 349 13 47 64 0 48 96 241 295 332 341 330 101 136 63 347 4 352 335 333 322 225 180 297 132 133 161 188 219 281 266 249 214 139 111 99 102 97 88 74 45 38 35 28 21 17 15
15 2 58 19 9 2 352 339 320 114 130 237 241 255 317 324 340 359 13 19 5 189 197 204 158 206 237 284 322 290 334 329 321 350 260 310 9 314 318 352 353 343 25 41 41 35 47 106 192 293 337 320 265 252 192 204 227 194 226 266 268 266 294 355 291 288 110 140 169 170 229 257 251 204 149 121 116 125 107 95 89 60 45 32 21 13 5 2
13 353 329 8 357 349 344 333 331 6 143 351 331 323 340 338 345 353 358 3 1 2 43 54 78 349 246 192 287 311 8 316 292 330 270 286 306 233 290 354 358 16 77 68 318 211 144 106 124 242 250 241 270 285 303 300 249 179 180 228 216 135 101 142 234 264 225 184 169 132 220 261 256 165 130 126 125 120 95 81 72 54 43 28 13 3 358 356
354 335 325 34 332 342 353 8 349 346 6 350 343 345 351 347 342 345 355 0 354 10 49 32 81 17 321 236 0 3 19 336 269 270 258 315 307 309 5 359 347 358 79 92 293 248 109 79 76 295 294 314 314 312 333 359 28 64 343 351 72 76 102 163 194 195 188 224 167 113 263 269 279 350 110 123 114 96 74 58 46 34 30 24 11 1 356 354
343 328 307 328 332 346 31 106 321 321 319 341 348 346 349 354 347 343 355 349 327 285 114 308 316 61 334 11 62 339 357 35 291 300 331 311 296 16 21 10 355 348 295 250 203 170 232 116 96 10 321 332 345 343 344 350 14 47 283 297 74 57 16 0 221 95 184 226 166 155 244 255 268 313 93 119 97 72 48 37 37 31 23 14 4 -0 359 356
347 327 302 319 338 21 82 101 62 338 329 345 343 328 336 349 346 336 321 309 308 317 135 255 90 82 35 38 48 304 203 141 250 316 351 319 300 21 21 9 1 353 290 223 142 139 168 201 138 128 239 257 292 281 267 285 302 304 261 260 62 35 353 344 17 55 267 249 169 166 242 267 283 326 13 27 31 26 8 18 34 30 15 1 351 350 354 0
2 341 312 324 341 33 77 70 52 46 349 351 336 314 328 321 320 330 323 299 325 3 347 255 59 62 41 34 31 313 309 209 237 281 347 339 322 350 3 4 6 8 17 43 57 93 97 40 165 160 187 205 197 216 224 222 278 290 288 286 290 93 83 71 72 205 214 242 285 231 227 275 292 339 27 7 5 359 343 4 16 4 356 351 347 347 346 353
13 22 355 341 331 349 28 32 29 19 328 333 315 271 305 307 302 332 330 305 11 18 5 321 28 31 352 4 21 293 321 322 324 351 3 359 316 316 345 4 10 8 19 20 2 13 88 355 279 190 208 217 195 214 234 232 255 263 273 282 280 138 137 173 223 230 183 106 286 257 207 257 281 36 70 334 320 329 316 335 340 337 350 2 5 4 355 349
33 21 38 25 316 311 6 346 345 345 326 322 299 236 291 303 289 302 315 323 17 31 28 4 16 16 356 3 63 315 346 358 357 351 356 356 336 331 344 345 359 16 25 17 -0 34 124 269 265 203 246 257 217 223 233 230 248 249 244 262 276 241 190 209 222 212 151 156 251 250 190 237 268 187 153 234 235 230 278 302 321 344 15 25 17 8 357 347
29 355 356 8 335 282 302 314 322 336 329 320 312 265 272 278 277 293 348 3 18 37 51 41 356 356 1 23 90 126 342 21 349 322 323 350 341 355 348 317 343 23 28 10 347 36 128 254 264 201 259 289 265 246 239 231 244 253 250 247 244 232 223 224 229 209 182 208 243 247 226 241 256 228 208 242 249 260 322 9 36 44 42 23 4 354 343 336
28 12 337 340 330 309 315 328 338 344 333 334 329 292 297 312 297 321 27 53 35 11 50 74 357 348 7 25 54 90 180 158 168 257 270 336 332 353 27 298 317 353 2 357 330 13 54 284 311 52 16 307 281 254 246 247 250 256 268 265 197 238 245 243 243 222 214 243 248 249 257 263 268 261 260 0 58 48 48 55 51 43 34 14 359 347 338 334
63 70 354 337 314 320 340 343 340 339 336 352 350 318 328 348 335 307 308 99 110 114 106 121 124 354 18 14 24 117 173 156 170 226 280 294 288 257 237 277 319 328 338 336 310 353 14 298 347 46 18 291 273 258 270 332 314 281 269 170 208 252 258 245 241 221 212 243 259 280 282 274 283 291 329 61 75 71 57 44 30 21 12 -0 348 339 336 337
64 107 29 11 292 315 5 345 331 13 12 342 345 336 328 340 347 351 346 44 77 86 83 104 110 64 19 348 324 265 228 195 204 267 300 301 293 278 270 280 281 267 270 310 304 291 180 235 315 71 346 272 269 281 352 14 332 287 250 191 202 234 253 279 295 270 228 221 237 249 242 239 260 315 20 40 54 63 46 19 7 357 347 341 337 338 344 340
Height
1505 1504 1503 1502 1502 1501 1501 1500 1499 1498 1498 1497 1496 1495 1495 1495 1494 1494 1494 1494 1495 1495 1495 1496 1496 1497 1497 1497 1496 1495 1495 1495 1494 1494 1492 1492 1493 1494 1494 1495 1496 1497 1498 1498 1498 1499 1499 1500 1501 1501 1502 1501 1501 1501 1501 1501 1501 1502 1504 1507 1510 1507 1505 1501 1497 1495 1493 1489 1485 1483 1479 1479 1485 1486 1485 1488 1488 1489 1493 1495 1495 1496 1498 1501 1503 1505 1508 1511
1505 1504 1503 1502 1502 1501 1501 1500 1499 1499 1498 1497 1496 1495 1495 1494 1494 1494 1494 1494 1494 1495 1495 1495 1496 1496 1496 1496 1495 1495 1494 1494 1493 1492 1491 1491 1492 1493 1494 1494 1495 1496 1497 1497 1498 1498 1499 1499 1500 1501 1501 1501 1500 1500 1500 1500 1500 1501 1502 1506 1506 1502 1499 1496 1494 1492 1491 1489 1484 1482 1482 1481 1484 1485 1485 1489 1492 1491 1494 1498 1496 1498 1503 1505 1506 1508 1510 1511
1504 1503 1503 1502 1502 1501 1501 1500 1500 1499 1498 1497 1496 1496 1495 1494 1494 1494 1494 1494 1494 1494 1495 1495 1496 1496 1496 1495 1495 1495 1494 1494 1492 1491 1490 1491 1491 1492 1493 1493 1494 1495 1496 1497 1497 1498 1498 1499 1500 1500 1501 1501 1499 1499 1500 1500 1499 1498 1500 1504 1501 1496 1496 1494 1492 1491 1490 1487 1483 1482 1481 1482 1484 1484 1484 1489 1493 1492 1493 1497 1497 1499 1504 1506 1508 1509 1510 1512
1504 1503 1503 1502 1502 1501 1501 1500 1500 1499 1498 1497 1496 1496 1495 1494 1494 1494 1494 1494 1494 1494 1495 1495 1496 1496 1496 1495 1495 1495 1494 1494 1491 1490 1491 1491 1492 1492 1492 1492 1492 1494 1495 1496 1497 1497 1498 1499 1500 1500 1501 1500 1499 1499 1499 1498 1499 1497 1497 1499 1497 1494 1495 1493 1491 1490 1488 1486 1483 1482 1481 1482 1484 1484 1484 1487 1494 1495 1493 1492 1492 1496 1501 1504 1507 1508 1509 1511
1504 1503 1503 1502 1502 1501 1501 1500 1500 1499 1498 1497 1497 1496 1495 1495 1494 1494 1494 1494 1494 1494 1495 1495 1495 1495 1495 1495 1495 1495 1495 1494 1491 1490 1491 1491 1491 1491 1491 1491 1492 1493 1494 1495 1496 1496 1497 1498 1499 1500 1500 1499 1498 1499 1497 1496 1498 1497 1494 1493 1493 1493 1493 1491 1490 1490 1488 1486 1484 1482 1482 1483 1484 1486 1487 1486 1490 1494 1492 1490 1489 1492 1496 1500 1503 1506 1509 1511
1504 1503 1503 1502 1502 1502 1501 1500 1500 1499 1498 1498 1497 1496 1495 1495 1494 1494 1494 1494 1494 1494 1495 1495 1495 1495 1495 1495 1495 1495 1496 1494 1490 1490 1490 1490 1491 1491 1491 1490 1491 1493 1493 1494 1495 1496 1497 1498 1499 1499 1499 1498 1498 1498 1495 1495 1497 1498 1494 1490 1491 1491 1490 1490 1489 1489 1487 1486 1486 1485 1485 1485 1485 1488 1489 1487 1487 1489 1490 1491 1491 1491 1494 1496 1500 1504 1507 1509
1504 1503 1503 1503 1502 1502 1501 1501 1500 1499 1498 1498 1497 1496 1496 1495 1495 1494 1494 1494 1494 1494 1495 1495 1495 1495 1495 1495 1495 1495 1495 1492 1489 1490 1490 1490 1490 1489 1489 1490 1491 1492 1493 1494 1495 1496 1496 1497 1497 1498 1498 1498 1497 1495 1494 1494 1495 1497 1494 1489 1489 1489 1488 1488 1489 1488 1486 1486 1486 1486 1487 1487 1487 1489 1489 1487 1487 1488 1491 1493 1493 1494 1496 1498 1502 1504 1506 1508
1504 1504 1503 1503 1503 1502 1501 1501 1500 1499 1498 1497 1497 1496 1496 1495 1495 1494 1494 1494 1494 1495 1495 1495 1495 1495 1495 1495 1495 1495 1494 1491 1489 1490 1489 1489 1489 1489 1489 1490 1491 1491 1492 1494 1494 1496 1496 1496 1497 1498 1498 1496 1495 1493 1493 1494 1494 1494 1492 1488 1487 1487 1486 1487 1488 1487 1486 1485 1485 1485 1487 1488 1489 1489 1490 1489 1488 1488 1491 1494 1495 1497 1499 1502 1503 1505 1507 1509
1505 1505 1504 1504 1503 1502 1502 1501 1500 1499 1498 1498 1497 1496 1496 1495 1495 1494 1494 1494 1495 1495 1495 1495 1495 1495 1496 1495 1495 1495 1492 1490 1490 1490 1489 1489 1489 1489 1490 1490 1491 1491 1492 1494 1495 1496 1496 1496 1496 1497 1498 1495 1493 1492 1492 1494 1493 1490 1487 1485 1485 1485 1484 1485 1485 1485 1485 1485 1485 1486 1487 1488 1489 1489 1492 1493 1490 1489 1491 1494 1496 1498 1500 1503 1504 1506 1508 1510
1506 1505 1505 1504 1503 1503 1502 1501 1500 1499 1498 1498 1497 1496 1496 1495 1495 1494 1494 1495 1495 1495 1495 1495 1495 1496 1496 1495 1496 1495 1491 1490 1490 1490 1489 1489 1490 1490 1490 1491 1491 1492 1493 1494 1495 1496 1495 1496 1496 1496 1497 1494 1493 1492 1491 1493 1491 1486 1484 1483 1484 1484 1483 1484 1484 1484 1485 1485 1485 1487 1488 1487 1488 1490 1495 1497 1492 1490 1492 1495 1496 1498 1499 1502 1504 1505 1507 1509
1506 1506 1505 1504 1504 1503 1502 1501 1500 1499 1499 1498 1497 1496 1496 1495 1495 1495 1495 1495 1495 1495 1495 1495 1496 1496 1496 1495 1496 1494 1491 1490 1491 1490 1490 1490 1491 1491 1491 1492 1492 1493 1494 1495 1495 1496 1496 1496 1496 1496 1496 1493 1491 1491 1489 1489 1488 1484 1481 1481 1483 1483 1483 1483 1483 1484 1484 1485 1485 1486 1488 1488 1487 1490 1494 1496 1494 1492 1493 1497 1498 1498 1499 1500 1503 1504 1506 1508
1507 1506 1506 1505 1504 1503 1503 1502 1500 1500 1499 1498 1497 1496 1496 1495 1495 1495 1495 1495 1495 1495 1495 1496 1496 1496 1495 1495 1494 1492 1490 1491 1491 1491 1491 1491 1492 1492 1492 1492 1493 1493 1494 1494 1495 1495 1495 1495 1496 1496 1495 1492 1491 1491 1488 1487 1486 1482 1480 1481 1483 1482 1483 1484 1483 1483 1483 1484 1484 1485 1491 1491 1489 1490 1492 1494 1495 1493 1493 1496 1498 1498 1498 1500 1502 1503 1505 1507
1508 1507 1506 1505 1505 1504 1503 1502 1501 1500 1499 1498 1497 1497 1496 1495 1495 1495 1495 1495 1495 1496 1496 1496 1496 1496 1496 1494 1491 1491 1491 1491 1492 1492 1492 1492 1493 1492 1493 1493 1493 1493 1493 1493 1494 1494 1495 1495 1495 1494 1492 1491 1491 1490 1488 1486 1485 1482 1480 1481 1483 1485 1485 1483 1483 1483 1482 1484 1483 1486 1498 1496 1489 1489 1492 1495 1495 1494 1494 1495 1497 1498 1498 1500 1501 1503 1504 1506
1508 1507 1506 1506 1505 1504 1503 1502 1501 1500 1500 1499 1498 1497 1496 1496 1495 1495 1495 1496 1496 1496 1496 1496 1496 1496 1496 1493 1490 1490 1491 1491 1491 1491 1492 1492 1493 1493 1493 1492 1492 1492 1492 1493 1493 1494 1494 1494 1494 1492 1491 1490 1490 1489 1487 1486 1484 1483 1483 1483 1486 1491 1488 1481 1482 1484 1483 1485 1482 1487 1499 1496 1489 1489 1490 1494 1495 1494 1494 1494 1495 1497 1497 1499 1500 1502 1503 1504
1508 1507 1507 1506 1505 1505 1504 1503 1502 1501 1500 1499 1499 1498 1497 1497 1496 1496 1496 1496 1496 1497 1496 1497 1496 1496 1495 1491 1489 1490 1490 1490 1490 1489 1491 1492 1492 1492 1492 1492 1493 1493 1493 1493 1493 1494 1493 1493 1493 1491 1490 1490 1489 1490 1489 1488 1486 1485 1489 1491 1491 1492 1489 1482 1482 1483 1483 1485 1483 1488 1497 1494 1489 1489 1488 1491 1494 1493 1493 1493 1494 1495 1496 1498 1499 1501 1502 1504
1508 1508 1507 1506 1505 1505 1504 1503 1502 1502 1501 1500 1499 1499 1498 1498 1497 1496 1496 1496 1497 1497 1497 1496 1496 1496 1495 1491 1489 1489 1489 1489 1488 1489 1490 1491 1492 1492 1492 1492 1493 1492 1493 1493 1493 1493 1493 1493 1492 1491 1490 1490 1490 1492 1493 1494 1491 1489 1492 1495 1493 1493 1492 1487 1483 1481 1481 1484 1485 1487 1492 1492 1489 1487 1487 1489 1490 1491 1491 1492 1494 1494 1495 1497 1498 1500 1501 1503
1508 1508 1507 1506 1506 1505 1504 1504 1503 1502 1501 1501 1500 1499 1498 1498 1497 1497 1496 1497 1497 1497 1497 1496 1496 1496 1493 1489 1488 1488 1488 1488 1488 1489 1490 1490 1491 1491 1492 1492 1492 1492 1492 1492 1492 1492 1492 1492 1491 1491 1490 1491 1491 1493 1498 1502 1499 1495 1495 1496 1496 1495 1495 1493 1486 1481 1480 1482 1485 1485 1486 1488 1487 1485 1486 1486 1485 1486 1487 1489 1492 1493 1495 1496 1498 1499 1500 1501
1508 1507 1507 1506 1506 1505 1504 1504 1503 1502 1502 1501 1500 1499 1499 1498 1498 1497 1497 1497 1497 1497 1497 1496 1496 1496 1491 1488 1489 1488 1488 1488 1488 1489 1490 1490 1491 1491 1492 1492 1492 1492 1491 1491 1492 1491 1492 1491 1491 1492 1492 1492 1492 1494 1502 1504 1500 1498 1498 1497 1497 1495 1495 1495 1489 1482 1479 1480 1483 1486 1486 1485 1486 1485 1485 1484 1482 1483 1485 1487 1490 1493 1494 1495 1496 1497 1498 1499
1508 1507 1507 1506 1505 1505 1504 1504 1503 1502 1502 1501 1501 1500 1499 1498 1498 1497 1497 1497 1497 1496 1496 1494 1495 1495 1491 1488 1488 1488 1487 1488 1488 1488 1489 1490 1490 1491 1491 1492 1492 1491 1491 1492 1491 1490 1491 1491 1492 1495 1495 1493 1492 1494 1497 1497 1496 1497 1497 1497 1498 1497 1494 1491 1487 1482 1479 1480 1483 1486 1485 1484 1485 1485 1484 1484 1483 1483 1485 1487 1489 1491 1492 1493 1494 1494 1495 1497
1507 1506 1506 1506 1505 1504 1504 1503 1503 1502 1502 1501 1501 1500 1499 1498 1498 1498 1497 1496 1495 1494 1493 1493 1492 1491 1489 1488 1488 1487 1487 1488 1488 1488 1488 1489 1490 1490 1490 1491 1491 1491 1491 1491 1492 1490 1490 1493 1495 1495 1494 1492 1491 1492 1492 1492 1493 1494 1495 1496 1497 1498 1495 1489 1486 1482 1478 1481 1487 1487 1485 1486 1487 1486 1484 1485 1485 1484 1485 1486 1487 1488 1489 1490 1491 1492 1493 1494
1506 1506 1505 1505 1504 1504 1503 1503 1502 1502 1502 1501 1501 1500 1499 1499 1499 1499 1497 1494 1492 1492 1491 1490 1491 1490 1487 1487 1487 1487 1488 1488 1487 1487 1488 1489 1489 1490 1490 1489 1490 1491 1491 1491 1491 1490 1491 1496 1495 1490 1489 1489 1489 1490 1491 1491 1492 1492 1494 1495 1495 1497 1495 1489 1486 1483 1479 1482 1489 1489 1488 1489 1488 1487 1487 1485 1485 1485 1484 1485 1485 1485 1486 1487 1488 1489 1491 1492
1506 1505 1505 1504 1504 1504 1503 1502 1502 1502 1502 1501 1501 1500 1500 1500 1500 1499 1497 1494 1490 1489 1489 1488 1489 1488 1485 1485 1486 1487 1488 1487 1486 1487 1487 1488 1489 1489 1489 1489 1490 1491 1490 1490 1492 1493 1495 1496 1490 1486 1487 1489 1490 1490 1489 1490 1491 1493 1494 1495 1496 1496 1494 1490 1485 1483 1481 1484 1489 1490 1490 1490 1487 1487 1488 1487 1485 1484 1484 1484 1484 1483 1484 1486 1487 1488 1490 1492
1506 1505 1504 1504 1503 1504 1503 1503 1502 1502 1502 1501 1500 1500 1500 1500 1499 1499 1498 1496 1490 1487 1487 1486 1486 1485 1483 1484 1485 1486 1487 1486 1485 1485 1486 1487 1487 1488 1489 1489 1490 1491 1490 1491 1493 1497 1498 1491 1484 1484 1487 1488 1490 1490 1489 1490 1491 1493 1494 1496 1497 1495 1495 1495 1489 1484 1484 1486 1489 1490 1490 1490 1487 1485 1485 1485 1485 1484 1484 1484 1483 1484 1483 1483 1484 1485 1487 1490
1505 1504 1504 1504 1504 1503 1503 1503 1503 1502 1502 1501 1501 1500 1500 1499 1499 1498 1497 1495 1491 1486 1484 1484 1484 1483 1483 1482 1483 1484 1484 1484 1484 1483 1484 1485 1486 1487 1488 1488 1490 1491 1491 1490 1492 1496 1494 1485 1481 1484 1486 1486 1488 1490 1489 1490 1493 1493 1492 1494 1495 1493 1493 1495 1491 1487 1486 1487 1487 1488 1493 1492 1486 1486 1484 1482 1484 1484 1483 1484 1483 1482 1482 1482 1482 1483 1485 1487
1505 1505 1504 1503 1504 1503 1503 1503 1502 1502 1501 1501 1501 1500 1499 1499 1498 1497 1496 1496 1494 1486 1482 1483 1482 1482 1482 1481 1482 1482 1482 1483 1482 1482 1483 1483 1485 1486 1487 1487 1489 1490 1489 1488 1491 1494 1490 1483 1481 1485 1485 1484 1486 1488 1488 1489 1492 1494 1491 1489 1490 1489 1491 1492 1492 1492 1495 1495 1488 1489 1503 1501 1489 1489 1488 1484 1484 1483 1482 1483 1482 1479 1479 1481 1482 1483 1485 1485
1504 1504 1504 1504 1504 1503 1503 1503 1502 1502 1501 1501 1501 1499 1499 1498 1497 1497 1496 1500 1498 1486 1482 1483 1482 1481 1481 1481 1481 1481 1483 1482 1479 1481 1481 1481 1484 1485 1486 1486 1486 1487 1486 1487 1489 1489 1485 1481 1481 1483 1484 1484 1485 1486 1486 1486 1492 1495 1489 1485 1486 1487 1490 1492 1494 1497 1501 1501 1493 1491 1503 1505 1496 1489 1486 1483 1483 1481 1481 1482 1480 1477 1476 1478 1480 1481 1481 1483
1504 1504 1504 1504 1503 1503 1503 1502 1503 1502 1500 1500 1499 1499 1499 1496 1497 1496 1497 1506 1502 1486 1482 1482 1481 1481 1479 1479 1479 1481 1486 1483 1478 1480 1480 1481 1483 1483 1485 1485 1485 1485 1484 1486 1491 1488 1482 1481 1481 1482 1483 1486 1487 1487 1485 1485 1491 1493 1485 1482 1485 1486 1489 1491 1492 1497 1498 1497 1496 1494 1497 1504 1501 1491 1485 1484 1484 1481 1480 1479 1477 1475 1474 1475 1476 1477 1478 1480
1504 1504 1503 1503 1502 1502 1502 1502 1502 1501 1500 1500 1498 1498 1497 1495 1497 1495 1500 1511 1501 1483 1481 1481 1479 1479 1478 1478 1478 1479 1482 1481 1480 1481 1480 1481 1482 1481 1483 1483 1483 1484 1482 1487 1494 1488 1482 1482 1481 1480 1482 1485 1485 1484 1483 1484 1487 1486 1481 1481 1483 1485 1488 1487 1489 1494 1495 1497 1501 1497 1495 1503 1503 1490 1485 1486 1484 1482 1478 1475 1474 1472 1471 1472 1473 1475 1476 1478
1504 1503 1503 1503 1502 1502 1502 1502 1501 1500 1500 1499 1497 1497 1495 1495 1495 1495 1504 1509 1494 1481 1481 1480 1478 1478 1477 1478 1478 1477 1478 1478 1480 1480 1478 1480 1480 1479 1481 1480 1480 1482 1482 1485 1489 1485 1481 1480 1478 1478 1480 1482 1481 1480 1480 1482 1484 1482 1480 1482 1482 1484 1486 1486 1488 1490 1494 1501 1503 1497 1495 1504 1502 1489 1485 1486 1484 1481 1476 1472 1471 1468 1467 1468 1470 1472 1474 1476
1504 1503 1503 1503 1502 1502 1502 1502 1501 1500 1499 1498 1497 1496 1495 1496 1496 1502 1512 1505 1489 1482 1481 1479 1478 1477 1477 1479 1478 1477 1477 1477 1477 1478 1478 1478 1478 1478 1478 1479 1478 1480 1482 1483 1484 1482 1479 1477 1477 1477 1477 1478 1477 1478 1478 1480 1481 1480 1481 1483 1484 1487 1486 1487 1490 1491 1499 1506 1500 1495 1496 1502 1504 1492 1483 1484 1479 1476 1475 1472 1467 1465 1464 1465 1466 1470 1472 1474
1504 1503 1503 1502 1503 1502 1502 1502 1501 1500 1498 1497 1497 1495 1495 1496 1499 1509 1511 1495 1486 1485 1480 1480 1479 1476 1478 1480 1479 1478 1476 1476 1476 1478 1479 1477 1478 1478 1479 1480 1480 1482 1485 1483 1482 1481 1478 1477 1477 1474 1473 1475 1475 1476 1478 1478 1478 1480 1483 1485 1489 1494 1492 1493 1496 1496 1507 1510 1496 1493 1497 1503 1507 1494 1480 1479 1475 1473 1476 1472 1465 1462 1462 1463 1464 1467 1469 1471
1504 1504 1503 1503 1503 1502 1502 1501 1500 1500 1498 1497 1497 1494 1496 1501 1504 1509 1502 1489 1491 1489 1481 1483 1481 1477 1479 1478 1478 1477 1476 1476 1475 1476 1478 1477 1478 1479 1479 1481 1481 1487 1491 1487 1484 1483 1478 1476 1476 1474 1472 1473 1476 1478 1479 1477 1478 1482 1485 1488 1496 1504 1505 1506 1506 1505 1510 1506 1493 1492 1497 1502 1503 1489 1477 1476 1474 1472 1473 1471 1466 1462 1461 1462 1463 1465 1466 1469
1504 1504 1503 1503 1502 1502 1501 1500 1500 1499 1497 1496 1496 1494 1498 1506 1507 1502 1496 1492 1494 1488 1482 1483 1481 1478 1479 1479 1478 1475 1474 1475 1473 1474 1475 1476 1479 1479 1478 1478 1477 1483 1489 1489 1488 1486 1482 1478 1474 1475 1474 1472 1474 1479 1482 1480 1479 1482 1486 1489 1498 1507 1515 1517 1515 1515 1513 1502 1492 1492 1495 1499 1496 1483 1474 1475 1474 1472 1471 1469 1467 1463 1462 1462 1462 1463 1464 1466
1504 1504 1503 1503 1502 1502 1501 1500 1499 1498 1497 1496 1496 1495 1501 1509 1504 1496 1494 1493 1489 1485 1483 1484 1481 1479 1479 1480 1479 1475 1476 1475 1471 1472 1475 1476 1481 1482 1479 1478 1476 1478 1483 1488 1489 1488 1490 1488 1478 1475 1476 1473 1472 1475 1477 1477 1477 1480 1481 1486 1493 1499 1507 1513 1511 1510 1508 1500 1495 1495 1495 1496 1491 1479 1472 1472 1472 1471 1468 1468 1467 1465 1464 1464 1463 1464 1464 1465
1504 1504 1503 1502 1502 1501 1500 1500 1499 1498 1498 1496 1496 1500 1505 1507 1502 1495 1494 1491 1487 1485 1484 1482 1481 1482 1482 1481 1479 1477 1479 1479 1474 1473 1475 1477 1480 1480 1477 1476 1475 1476 1480 1487 1488 1486 1490 1488 1476 1474 1474 1472 1474 1474 1473 1475 1479 1481 1481 1485 1490 1488 1491 1500 1503 1501 1501 1502 1500 1496 1493 1489 1483 1475 1471 1473 1472 1469 1468 1468 1467 1467 1467 1467 1467 1467 1467 1467
1504 1504 1503 1502 1502 1501 1500 1500 1499 1498 1498 1496 1499 1504 1503 1501 1497 1493 1492 1489 1488 1488 1486 1485 1484 1487 1489 1486 1483 1481 1481 1480 1478 1477 1477 1476 1477 1476 1474 1473 1472 1474 1478 1483 1486 1485 1489 1486 1475 1473 1473 1472 1476 1475 1473 1477 1481 1481 1482 1484 1483 1479 1481 1493 1501 1501 1503 1505 1502 1497 1491 1485 1482 1478 1473 1474 1474 1473 1474 1473 1473 1473 1471 1471 1471 1471 1471 1472
1504 1503 1503 1502 1501 1501 1500 1500 1499 1499 1498 1498 1502 1503 1499 1495 1492 1490 1490 1489 1489 1488 1489 1493 1491 1490 1495 1493 1489 1488 1484 1482 1482 1483 1482 1480 1479 1477 1474 1472 1471 1471 1472 1475 1480 1482 1486 1485 1477 1474 1475 1474 1474 1474 1472 1474 1476 1480 1484 1480 1478 1480 1484 1491 1500 1504 1508 1509 1503 1498 1492 1487 1487 1485 1477 1476 1478 1479 1479 1477 1476 1476 1474 1475 1475 1474 1474 1475
1504 1503 1503 1502 1502 1501 1501 1500 1499 1499 1498 1500 1503 1502 1497 1494 1491 1489 1489 1488 1488 1488 1490 1497 1494 1490 1495 1496 1493 1490 1488 1488 1487 1487 1486 1483 1481 1479 1476 1475 1472 1470 1469 1469 1474 1478 1481 1485 1481 1476 1476 1475 1472 1473 1475 1474 1474 1479 1482 1478 1480 1488 1492 1496 1502 1504 1508 1511 1505 1499 1497 1492 1489 1487 1481 1480 1482 1482 1482 1479 1478 1478 1477 1477 1477 1476 1477 1478
1504 1503 1503 1502 1502 1502 1501 1500 1499 1498 1499 1501 1504 1501 1495 1493 1491 1489 1489 1487 1488 1489 1491 1495 1493 1491 1493 1494 1494 1490 1489 1491 1490 1489 1489 1485 1482 1479 1477 1477 1475 1473 1471 1468 1472 1478 1479 1485 1486 1477 1475 1476 1473 1476 1483 1484 1479 1477 1479 1480 1482 1487 1490 1493 1497 1497 1500 1507 1506 1503 1501 1493 1485 1484 1482 1481 1482 1483 1483 1482 1481 1480 1479 1479 1478 1477 1478 1480
1503 1503 1503 1503 1502 1501 1500 1499 1498 1499 1500 1501 1502 1499 1493 1491 1490 1489 1489 1487 1487 1489 1491 1491 1492 1493 1492 1491 1492 1490 1488 1490 1490 1490 1489 1485 1483 1481 1478 1477 1476 1475 1474 1471 1475 1478 1479 1485 1488 1481 1476 1478 1480 1482 1486 1489 1487 1484 1486 1487 1486 1486 1488 1490 1492 1492 1494 1500 1505 1506 1503 1492 1482 1481 1479 1479 1481 1482 1482 1482 1482 1482 1481 1480 1480 1479 1479 1479
1503 1503 1503 1502 1502 1501 1500 1499 1498 1498 1500 1500 1499 1497 1494 1492 1491 1489 1488 1488 1487 1487 1488 1489 1490 1492 1491 1491 1492 1491 1490 1490 1489 1489 1488 1486 1487 1485 1480 1477 1476 1476 1475 1475 1478 1480 1481 1485 1489 1486 1483 1482 1483 1482 1482 1484 1486 1488 1489 1488 1487 1488 1490 1494 1497 1494 1492 1495 1499 1502 1500 1488 1479 1477 1476 1478 1481 1481 1480 1481 1482 1482 1482 1481 1481 1480 1480 1480
1504 1504 1503 1502 1501 1500 1499 1498 1499 1499 1499 1499 1498 1497 1496 1494 1492 1490 1488 1487 1487 1487 1487 1489 1490 1490 1491 1491 1491 1490 1491 1491 1489 1489 1488 1486 1487 1485 1480 1478 1477 1475 1476 1479 1481 1481 1481 1485 1488 1489 1488 1485 1483 1480 1479 1481 1480 1482 1486 1485 1486 1488 1490 1496 1499 1495 1493 1494 1494 1498 1496 1484 1475 1475 1475 1477 1480 1479 1479 1479 1480 1481 1481 1481 1481 1481 1481 1481
1504 1503 1502 1501 1501 1500 1499 1500 1501 1500 1500 1499 1498 1497 1496 1494 1493 1491 1490 1489 1489 1488 1488 1489 1489 1490 1490 1490 1490 1490 1491 1491 1489 1487 1487 1486 1485 1483 1482 1480 1478 1477 1477 1481 1482 1480 1481 1485 1488 1489 1489 1486 1483 1479 1478 1479 1478 1481 1486 1485 1486 1490 1491 1493 1495 1493 1492 1492 1493 1499 1497 1482 1475 1476 1476 1478 1479 1479 1479 1479 1478 1480 1480 1480 1481 1481 1481 1481
1504 1503 1501 1501 1500 1499 1500 1503 1504 1503 1502 1501 1499 1497 1496 1494 1493 1492 1492 1492 1491 1490 1490 1489 1489 1490 1490 1489 1490 1490 1492 1493 1490 1487 1487 1487 1485 1483 1483 1482 1480 1480 1479 1480 1480 1479 1481 1486 1489 1493 1494 1492 1490 1487 1483 1482 1482 1485 1488 1487 1487 1490 1490 1490 1491 1491 1492 1490 1489 1494 1491 1480 1476 1477 1477 1478 1479 1478 1478 1478 1478 1478 1478 1479 1480 1481 1481 1481
1505 1503 1500 1500 1500 1499 1501 1504 1504 1504 1504 1502 1500 1498 1496 1494 1494 1494 1493 1492 1491 1490 1490 1489 1488 1488 1489 1489 1490 1490 1490 1492 1492 1489 1487 1487 1485 1483 1484 1484 1482 1481 1480 1479 1478 1478 1482 1486 1487 1492 1499 1500 1500 1498 1492 1488 1487 1488 1487 1487 1488 1490 1490 1489 1491 1493 1494 1492 1489 1489 1486 1479 1476 1477 1477 1477 1477 1476 1476 1476 1476 1477 1478 1478 1478 1478 1479 1479
1506 1505 1503 1500 1499 1499 1501 1503 1504 1505 1505 1505 1503 1499 1497 1496 1494 1493 1492 1491 1490 1489 1489 1489 1488 1488 1489 1490 1491 1491 1490 1490 1491 1489 1489 1490 1488 1486 1486 1485 1483 1482 1481 1480 1479 1480 1484 1486 1485 1487 1492 1495 1495 1493 1489 1489 1489 1488 1486 1486 1488 1490 1489 1489 1494 1496 1493 1492 1491 1487 1484 1480 1477 1479 1480 1478 1478 1477 1476 1476 1476 1476 1476 1477 1477 1477 1477 1477
1507 1508 1508 1506 1502 1500 1501 1502 1503 1505 1505 1506 1505 1500 1498 1498 1496 1493 1492 1491 1490 1490 1489 1489 1489 1490 1492 1492 1492 1494 1493 1491 1490 1491 1493 1494 1492 1489 1487 1485 1484 1483 1482 1482 1481 1482 1486 1488 1487 1487 1487 1487 1489 1488 1486 1487 1488 1487 1487 1485 1485 1490 1490 1490 1492 1492 1491 1494 1492 1486 1484 1483 1479 1481 1483 1480 1478 1479 1477 1476 1476 1475 1475 1476 1476 1477 1477 1476
1509 1510 1511 1511 1509 1506 1504 1503 1504 1505 1504 1504 1503 1500 1499 1499 1497 1496 1493 1491 1491 1492 1491 1492 1494 1494 1495 1494 1494 1496 1496 1495 1494 1494 1496 1496 1495 1492 1489 1486 1486 1485 1484 1484 1484 1485 1488 1489 1487 1488 1487 1487 1488 1487 1486 1487 1487 1486 1485 1484 1484 1488 1489 1488 1489 1488 1489 1493 1489 1483 1486 1485 1479 1481 1483 1480 1478 1478 1476 1476 1475 1475 1475 1475 1475 1476 1476 1476
1511 1511 1510 1510 1510 1510 1508 1506 1505 1505 1504 1503 1502 1500 1499 1498 1497 1496 1494 1493 1493 1494 1495 1498 1499 1498 1497 1496 1496 1497 1498 1498 1498 1498 1498 1498 1497 1497 1494 1491 1488 1487 1488 1488 1487 1487 1489 1489 1487 1488 1488 1487 1487 1486 1485 1486 1485 1483 1482 1483 1485 1486 1486 1486 1487 1486 1487 1487 1484 1483 1487 1485 1480 1480 1481 1479 1478 1477 1477 1476 1476 1475 1475 1475 1475 1476 1476 1476
1513 1513 1512 1511 1510 1509 1508 1507 1506 1506 1505 1504 1503 1501 1499 1498 1497 1496 1495 1494 1496 1497 1498 1501 1501 1499 1498 1498 1497 1498 1498 1499 1499 1499 1498 1499 1499 1498 1497 1495 1492 1490 1490 1490 1490 1488 1490 1491 1489 1488 1490 1490 1487 1484 1483 1485 1485 1483 1483 1484 1485 1485 1485 1485 1484 1484 1484 1484 1482 1483 1485 1482 1480 1480 1479 1479 1479 1477 1477 1476 1476 1476 1476 1476 1476 1476 1476 1475
1515 1515 1515 1513 1511 1509 1508 1507 1507 1506 1506 1506 1505 1503 1501 1501 1499 1497 1495 1494 1496 1498 1499 1500 1500 1499 1498 1498 1498 1498 1498 1498 1498 1498 1497 1498 1498 1497 1496 1495 1494 1493 1492 1492 1491 1491 1491 1493 1491 1490 1494 1494 1487 1484 1485 1485 1484 1482 1483 1485 1484 1482 1481 1481 1480 1481 1481 1480 1480 1482 1482 1480 1480 1480 1478 1479 1478 1477 1477 1477 1476 1477 1477 1476 1476 1476 1475 1475
1515 1515 1515 1515 1513 1510 1509 1508 1507 1507 1507 1507 1507 1505 1504 1503 1500 1498 1497 1495 1495 1496 1497 1497 1497 1497 1498 1497 1497 1497 1496 1496 1496 1496 1496 1495 1495 1495 1494 1494 1494 1494 1494 1493 1493 1492 1492 1492 1492 1494 1496 1494 1488 1485 1486 1487 1486 1481 1478 1478 1477 1476 1477 1478 1479 1480 1480 1479 1479 1480 1479 1479 1480 1479 1477 1477 1478 1477 1477 1477 1477 1476 1476 1476 1476 1475 1475 1475